Home   Weather   Ostrava   Past weeks

Flag for Czech Republic Past Weather in Ostrava, Czech Republic — Yesterday and Last 2 Weeks

Now
65 °F

Passing clouds.


Feels Like: 65 °F
Forecast: 60 / 85 °F
Wind: No wind

Location: Ostrava / Mosnov

Current Time: Aug 17, 2017 at 11:55:57 pm

Latest Report: Aug 17, 2017 at 11:00 pm


Visibility: 7 mi

Pressure: 30.09 "Hg

Humidity: 88%

Dew Point: 61 °F

Location of OstravaLocation

Past Weather in Ostrava — Graph

°F

Ostrava Temperature Yesterday

Maximum temperature yesterday: 84 °F (at 2:00 pm)
Minimum temperature yesterday: 56 °F (at 5:00 am)
Average temperature yesterday: 70 °F

High & Low Weather Summary for the Past Weeks

 TemperatureHumidityPressure
High93 °F (Aug 3, 4:00 pm)97% (Aug 12, 1:00 am)30.23 "Hg (Aug 12, 1:00 am)
Low49 °F (Aug 8, 5:00 am)29% (Aug 3, 4:00 pm)29.72 "Hg (Aug 11, 7:00 pm)
Average70 °F67%30.04 "Hg
* Reported Aug 2 10:00 pm — Aug 17 10:00 pm, Ostrava. Weather by CustomWeather, © 2017

Note: Actual official high and low records may vary slightly from our data, if they occured in-between our weather recording intervals... More about our weather records

Advertising

Ostrava Weather History for the Previous 24 Hours

Scroll right to see more
 ConditionsComfort  
Time TempWeatherWind HumidityBarometerVisibility
10:00 pm
Thu, Aug 17
65 °FPassing clouds.N/A80%30.10 "Hg9 mi
9:00 pm69 °FPassing clouds.2 mph73%30.09 "Hg9 mi
8:00 pm72 °FScattered clouds.2 mph65%30.08 "Hg9 mi
7:00 pm76 °FScattered clouds.5 mph57%30.07 "Hg16 mi
6:00 pm77 °FPassing clouds.3 mph55%30.06 "Hg19 mi
5:00 pm77 °FPassing clouds.3 mph55%30.08 "Hg19 mi
4:00 pm77 °FPassing clouds.3 mph55%30.08 "Hg19 mi
3:00 pm75 °FPassing clouds.3 mph60%30.10 "Hg12 mi
2:00 pm73 °FOvercast.3 mph63%30.13 "Hg9 mi
1:00 pm73 °FPartly sunny.3 mph66%30.14 "Hg9 mi
12:00 pm72 °FPartly sunny.3 mph72%30.14 "Hg9 mi
11:00 am69 °FOvercast.3 mph78%30.16 "Hg7 mi
10:00 am67 °FFog.5 mph83%30.17 "Hg6 mi
9:00 am66 °FFog.5 mph87%30.17 "Hg4 mi
8:00 am65 °FFog.5 mph90%30.17 "Hg4 mi
7:00 am65 °FFog.5 mph91%30.16 "Hg3 mi
6:00 am65 °FFog.3 mph93%30.16 "Hg2 mi
5:00 am64 °FFog.3 mph95%30.15 "Hg2 mi
4:00 am64 °FFog.3 mph95%30.16 "Hg3 mi
3:00 am65 °FOvercast.3 mph93%30.16 "Hg4 mi
2:00 am66 °FLight rain. Overcast.5 mph92%30.16 "Hg4 mi
1:00 am67 °FLight rain. Overcast.3 mph91%30.16 "Hg5 mi
12:00 am68 °FOvercast.2 mph84%30.17 "Hg7 mi
11:00 pm
Wed, Aug 16
69 °FOvercast.2 mph79%30.17 "Hg9 mi
Weather by CustomWeather, © 2017

See weather overviewHow to use our weather pages